Weather History for Crane Lake, MN

Change the Weather History Date:

Sunday, January 20, 2013

  Actual Average Record
Temperature  
Mean Temperature -10 °F -  
Max Temperature 1 °F 14 °F 26 °F (1997)
Min Temperature -20 °F -2 °F -27 °F (2008)
Degree Days  
Heating Degree Days 74    
Moisture  
Dew Point -16 °F    
Average Humidity 81    
Maximum Humidity 92    
Minimum Humidity 72    
Precipitation  
Precipitation 0.00 in - - ()
Sea Level Pressure  
Sea Level Pressure 30.20 in    
Wind  
Wind Speed 2 mph (West)    
Max Wind Speed 9 mph    
Max Gust Speed -    
Visibility 9 miles    
Events Snow    
Averages and records for this station are not official NWS values.
T = Trace of Precipitation, MM = Missing Value Source: NWS Daily Summary

Daily Weather History Graph

Daily Weather History Graph

Search for Another Location

Airport:

Trip Planner

Search our weather history database for the weather conditions in past years. The results will help you decide how hot, cold, wet, or windy it might be!

Date:

Astronomy

Jan. 20, 2013 Rise Set
Actual Time 7:51 AM CST 4:51 PM CST
Civil Twilight 7:16 AM CST 5:25 PM CST
Nautical Twilight 6:38 AM CST 6:04 PM CST
Astronomical Twilight 6:01 AM CST 6:41 PM CST
Moon 11:53 AM CST (1/20) 2:21 AM CST (1/20)
Length of Visible Light 10h 08m
Length of Day
8h 59m
Waxing Gibbous, 66% of the Moon is Illuminated
Jan 20
Waxing Gibbous
Jan 26
Full
Feb 3
Last Quarter
Feb 10
New
Feb 17
First Quarter

Hourly Weather History & Observations

Time (CST) Temp. Windchill Dew Point Humidity Pressure Visibility Wind Dir Wind Speed Gust Speed Precip Events Conditions
12:14 AM -9.4 °F -24.3 °F -13.0 °F 84% 30.16 in 10.0 mi NW 6.9 mph - N/A   Scattered Clouds
12:34 AM -9.4 °F - -14.8 °F 77% 30.16 in 10.0 mi Calm Calm - N/A   Scattered Clouds
12:54 AM -9.4 °F -22.7 °F -14.8 °F 77% 30.17 in 10.0 mi NW 5.8 mph - N/A   Scattered Clouds
1:14 AM -11.2 °F -27.8 °F -14.8 °F 84% 30.16 in 10.0 mi NNW 8.1 mph - N/A   Clear
1:34 AM -11.2 °F -20.6 °F -14.8 °F 84% 30.17 in 10.0 mi NW 3.5 mph - N/A   Clear
1:54 AM -13.0 °F - -18.4 °F 77% 30.19 in 10.0 mi Calm Calm - N/A   Clear
2:14 AM -13.0 °F -25.1 °F -16.6 °F 84% 30.19 in 10.0 mi NNW 4.6 mph - N/A   Clear
2:34 AM -13.0 °F - -16.6 °F 84% 30.20 in 10.0 mi North - - N/A   Clear
2:54 AM -14.8 °F - -18.4 °F 84% 30.20 in 10.0 mi Calm Calm - N/A   Clear
3:14 AM -16.6 °F - -20.2 °F 84% 30.19 in 10.0 mi Calm Calm - N/A   Clear
3:34 AM -18.4 °F - -23.8 °F 76% 30.19 in 10.0 mi Calm Calm - N/A   Clear
3:54 AM -18.4 °F - -23.8 °F 76% 30.19 in 10.0 mi Calm Calm - N/A   Scattered Clouds
4:14 AM -18.4 °F - -22.0 °F 84% 30.20 in 10.0 mi Calm Calm - N/A   Clear
4:34 AM -16.6 °F - -20.2 °F 84% 30.21 in 10.0 mi Calm Calm - N/A   Clear
4:54 AM -14.8 °F - -18.4 °F 84% 30.21 in 10.0 mi Calm Calm - N/A   Clear
5:14 AM -14.8 °F - -20.2 °F 77% 30.22 in 10.0 mi Calm Calm - N/A   Clear
5:34 AM -14.8 °F - -18.4 °F 84% 30.23 in 10.0 mi Calm Calm - N/A   Clear
5:54 AM -14.8 °F - -18.4 °F 84% 30.23 in 10.0 mi Calm Calm - N/A   Clear
6:14 AM -14.8 °F - -18.4 °F 84% 30.24 in 10.0 mi Calm Calm - N/A   Clear
6:34 AM -14.8 °F - -18.4 °F 84% 30.24 in 10.0 mi Calm Calm - N/A   Clear
6:54 AM -14.8 °F - -20.2 °F 77% 30.24 in 10.0 mi Calm Calm - N/A   Clear
7:14 AM -16.6 °F - -20.2 °F 84% 30.24 in 10.0 mi Calm Calm - N/A   Clear
7:34 AM -16.6 °F - -20.2 °F 84% 30.25 in 10.0 mi Calm Calm - N/A   Mostly Cloudy
7:54 AM -16.6 °F - -20.2 °F 84% 30.25 in 10.0 mi Calm Calm - N/A   Mostly Cloudy
8:14 AM -16.6 °F - -20.2 °F 84% 30.25 in 10.0 mi Calm Calm - N/A   Mostly Cloudy
8:34 AM -16.6 °F - -20.2 °F 84% 30.26 in 10.0 mi Calm Calm - N/A   Scattered Clouds
8:54 AM -16.6 °F -26.8 °F -20.2 °F 84% 30.26 in 10.0 mi West 3.5 mph - N/A   Scattered Clouds
9:14 AM -14.8 °F - -18.4 °F 84% 30.26 in 10.0 mi Calm Calm - N/A   Clear
9:34 AM -14.8 °F - -18.4 °F 84% 30.26 in 10.0 mi Calm Calm - N/A   Clear
9:54 AM -13.0 °F - -16.6 °F 84% 30.26 in 7.0 mi Calm Calm - N/A   Clear
10:15 AM -9.4 °F -18.6 °F -14.8 °F 77% 30.26 in 10.0 mi West 3.5 mph - N/A   Clear
10:34 AM -9.4 °F - -14.8 °F 77% 30.26 in 10.0 mi Calm Calm - N/A   Clear
10:54 AM -9.4 °F - -11.2 °F 92% 30.26 in 5.0 mi Calm Calm - N/A   Mostly Cloudy
11:14 AM -5.8 °F - -9.4 °F 84% 30.26 in 5.0 mi Calm Calm - N/A   Mostly Cloudy
11:34 AM -5.8 °F -14.5 °F -9.4 °F 84% 30.25 in 3.0 mi West 3.5 mph - N/A   Overcast
11:54 AM -2.2 °F - -7.6 °F 78% 30.24 in 7.0 mi Calm Calm - N/A   Mostly Cloudy
12:14 PM -0.4 °F -8.3 °F -5.8 °F 78% 30.24 in 7.0 mi SW 3.5 mph - N/A Snow Light Snow
12:54 PM 1.4 °F -6.2 °F -5.8 °F 72% 30.22 in 10.0 mi West 3.5 mph - N/A   Clear
1:14 PM -0.4 °F -8.3 °F -4.0 °F 85% 30.21 in 7.0 mi SW 3.5 mph - N/A   Scattered Clouds
1:35 PM -0.4 °F -8.3 °F -5.8 °F 78% 30.21 in 10.0 mi West 3.5 mph - N/A   Scattered Clouds
1:54 PM -0.4 °F -10.4 °F -5.8 °F 78% 30.20 in 10.0 mi WSW 4.6 mph - N/A   Scattered Clouds
2:14 PM 1.4 °F -6.2 °F -4.0 °F 78% 30.19 in 10.0 mi WSW 3.5 mph - N/A   Scattered Clouds
2:34 PM 1.4 °F -9.9 °F -4.0 °F 78% 30.19 in 10.0 mi NW 5.8 mph - N/A   Scattered Clouds
2:54 PM -0.4 °F - -5.8 °F 78% 30.19 in 10.0 mi Calm Calm - N/A   Scattered Clouds
3:14 PM -2.2 °F -14.2 °F -5.8 °F 85% 30.20 in 7.0 mi West 5.8 mph - N/A   Mostly Cloudy
3:34 PM -2.2 °F -10.4 °F -7.6 °F 78% 30.19 in 5.0 mi West 3.5 mph - N/A   Overcast
3:54 PM -2.2 °F -12.5 °F -7.6 °F 78% 30.19 in 1.8 mi West 4.6 mph - N/A Snow Light Snow
4:14 PM -4.0 °F -16.3 °F -7.6 °F 85% 30.18 in 3.0 mi West 5.8 mph - N/A Snow Light Snow
4:34 PM -5.8 °F -14.5 °F -9.4 °F 84% 30.18 in 10.0 mi West 3.5 mph - N/A   Scattered Clouds
4:54 PM -7.6 °F - -9.4 °F 92% 30.17 in 10.0 mi Calm Calm - N/A   Clear
5:14 PM -7.6 °F - -11.2 °F 84% 30.17 in 5.0 mi Calm Calm - N/A   Clear
5:34 PM -9.4 °F - -14.8 °F 77% 30.16 in 7.0 mi Calm Calm - N/A   Clear
5:54 PM -11.2 °F - -14.8 °F 84% 30.16 in 10.0 mi Calm Calm - N/A   Clear
6:14 PM -13.0 °F - -18.4 °F 77% 30.16 in 10.0 mi Calm Calm - N/A   Clear
6:34 PM -16.6 °F - -20.2 °F 84% 30.16 in 10.0 mi Calm Calm - N/A   Clear
6:54 PM -18.4 °F - -23.8 °F 76% 30.16 in 10.0 mi Calm Calm - N/A   Scattered Clouds
7:14 PM -18.4 °F - -23.8 °F 76% 30.15 in 4.0 mi Calm Calm - N/A Snow Light Snow
7:34 PM -18.4 °F - -23.8 °F 76% 30.15 in 10.0 mi Calm Calm - N/A   Scattered Clouds
7:54 PM -20.2 °F - -25.6 °F 76% 30.15 in 5.0 mi Calm Calm - N/A Snow Light Snow
8:14 PM -18.4 °F - -22.0 °F 84% 30.14 in 10.0 mi Calm Calm - N/A Snow Light Snow
8:34 PM -16.6 °F - -20.2 °F 84% 30.14 in 10.0 mi Calm Calm - N/A   Clear
8:54 PM -13.0 °F -27.0 °F -16.6 °F 84% 30.14 in 10.0 mi WNW 5.8 mph - N/A   Clear
9:14 PM -11.2 °F -20.6 °F -16.6 °F 77% 30.14 in 10.0 mi WNW 3.5 mph - N/A   Clear
9:34 PM -11.2 °F -24.8 °F -16.6 °F 77% 30.14 in 10.0 mi West 5.8 mph - N/A   Clear
9:54 PM -11.2 °F -26.4 °F -16.6 °F 77% 30.14 in 7.0 mi West 6.9 mph - N/A   Scattered Clouds
10:14 PM -13.0 °F -22.7 °F -16.6 °F 84% 30.14 in 10.0 mi West 3.5 mph - N/A   Scattered Clouds
10:34 PM -13.0 °F -22.7 °F -18.4 °F 77% 30.15 in 10.0 mi West 3.5 mph - N/A   Scattered Clouds
10:54 PM -13.0 °F -27.0 °F -18.4 °F 77% 30.15 in 3.0 mi West 5.8 mph - N/A Snow Light Snow
11:14 PM -14.8 °F -29.1 °F -18.4 °F 84% 30.15 in 4.0 mi West 5.8 mph - N/A   Overcast
11:34 PM -14.8 °F -33.5 °F -18.4 °F 84% 30.15 in 7.0 mi West 9.2 mph - N/A   Overcast
11:54 PM -14.8 °F -30.8 °F -20.2 °F 77% 30.15 in 10.0 mi West 6.9 mph - N/A   Scattered Clouds